Theta_e
323 322 323 323 323 323 323 324 326 325 325 325 325 325 326 326 326 326 323 321 320 320
307 309 314 317 321 323 324 324 324 325 324 324 324 324 324 325 324 325 325 322 321 319
303 304 305 306 306 307 308 310 312 317 320 322 322 322 321 322 322 321 321 321 320 319
302 302 302 302 302 303 304 305 306 307 309 311 315 318 319 319 320 320 320 321 319 318
299 300 300 300 300 301 301 302 302 303 304 306 308 311 313 316 317 317 317 318 318 317
296 296 296 297 298 298 299 300 301 301 301 302 304 305 307 308 310 315 318 317 316 316
292 292 293 294 295 296 296 297 297 298 299 300 301 302 304 302 303 304 307 310 317 318
289 290 291 291 292 293 294 295 295 296 296 297 298 298 295 295 296 298 299 302 304 307
286 286 287 288 289 290 291 292 292 293 294 294 294 294 293 293 294 296 296 297 299 302
283 283 283 285 287 287 288 289 290 291 291 291 293 293 292 292 294 295 295 296 297 298
280 280 281 282 284 285 287 287 287 288 289 289 290 291 291 291 293 293 294 295 295 296
278 278 279 280 281 284 284 285 285 286 287 288 289 290 290 291 292 291 292 292 293 293
276 277 277 278 279 281 282 283 284 284 286 287 288 290 290 290 290 289 289 290 290 289
274 275 276 277 277 278 279 280 282 283 286 286 287 288 289 289 288 288 288 287 288 290
Wind_Speed
5 6 7 9 8 7 7 8 10 10 11 13 14 14 14 11 12 13 12 16 13 12
5 4 2 5 6 6 8 8 9 10 12 13 13 14 15 11 13 13 13 13 14 13
5 5 5 4 5 5 6 7 8 9 10 11 12 13 14 11 12 13 11 10 13 13
6 6 6 5 6 7 7 7 7 8 9 10 11 11 12 15 15 15 15 15 15 16
6 6 5 6 7 7 7 7 8 8 8 9 10 11 12 11 12 15 15 15 16 17
6 6 6 6 7 8 8 8 8 8 9 9 9 11 11 13 14 15 14 15 16 16
7 7 6 6 6 7 8 9 10 9 9 10 10 10 10 12 14 15 14 14 15 16
7 7 8 9 8 8 9 8 9 10 8 9 9 7 13 13 14 14 16 16 15 14
5 6 7 7 8 7 8 8 9 9 9 9 7 11 12 13 13 14 14 14 15 15
7 7 8 9 9 9 9 10 10 10 10 11 11 14 17 15 11 12 12 11 12 12
8 8 8 8 8 9 8 8 9 9 10 10 10 15 17 18 13 11 11 11 12 14
9 9 9 8 9 9 9 9 9 10 11 11 11 12 15 16 11 10 11 10 12 13
10 9 9 9 10 10 10 10 9 10 10 10 12 14 13 13 8 10 9 10 9 11
11 11 9 10 10 11 11 11 11 11 10 10 10 12 15 16 11 9 10 11 11 9
Wind_Direction
250 248 249 252 257 258 253 255 255 255 247 250 249 249 247 246 243 241 235 238 235 239
48 37 348 308 289 276 278 276 277 269 265 262 259 258 256 252 249 247 245 240 239 240
45 32 16 7 1 338 320 316 310 301 290 279 273 266 261 257 252 251 247 244 243 241
42 33 35 28 11 357 338 335 321 313 306 300 294 283 274 265 261 255 253 246 243 242
23 19 24 17 4 352 345 343 339 330 317 309 304 300 290 286 271 266 262 257 253 249
23 11 5 4 358 350 343 342 342 343 336 326 319 310 304 298 290 283 266 257 256 260
2 355 353 349 357 350 341 342 342 342 338 330 329 322 334 329 314 307 302 310 296 264
353 355 352 344 348 344 338 337 332 324 333 333 328 341 334 327 316 310 304 299 297 295
348 352 355 343 332 343 334 338 322 327 325 326 321 326 320 318 318 309 306 305 307 302
359 353 356 344 340 342 340 329 321 322 325 323 318 327 324 315 314 305 307 304 304 304
349 355 345 341 336 331 319 313 317 318 322 316 310 317 320 316 313 315 313 309 308 304
341 338 339 340 330 322 324 317 318 312 308 309 308 308 317 327 314 306 310 316 307 305
334 330 328 325 323 320 312 307 309 300 298 298 303 303 296 311 311 307 311 310 298 286
328 325 325 325 323 317 318 312 303 299 297 290 280 293 309 316 318 311 313 312 310 306